Location: Unspecified
(36.5600°N, 136.6600°E)
Time: 19:50:19
(UTC+09:00)

BlueWalker 3 - Pass Details

Date: 24 June 2024
Orbit: 480 x 491 km, 53.2° (Epoch: 19 July)

Event Time Altitude Azimuth Distance (km) Brightness Sun altitude
Rises 01:45:51 0° 318° (NW) 2,537 5.8 -24.6°
Reaches altitude 10° 01:48:06 10° 326° (NW) 1,655 4.9 -24.4°
Maximum altitude 01:51:40 43° 39° (NE) 687 3.0 -24.1°
Drops below altitude 10° 01:55:14 10° 112° (ESE) 1,651 4.6 -23.7°
Sets 01:57:28 0° 119° (ESE) 2,529 5.5 -23.5°
